Regional Weather Roundup
Issued by NWS State College, PA

Home | Current Version | Previous Version | Text Only | Print | Product List | Glossary On
Versions: 1 2 3 4 5 6 7 8 9 10 11 12 13 14 15 16 17 18 19 20 21 22 23 24 25 26 27 28 29 30 31 32 33 34 35 36 37 38 39 40 41 42 43 44 45 46 47 48 49 50
000
ASUS41 KCTP 240510
RWRCTP

REGIONAL WEATHER ROUNDUP
NATIONAL WEATHER SERVICE STATE COLLEGE PA
100 AM EDT SUN MAY 24 2015

Note: "fair" indicates few or no clouds below 12,000 feet with no
significant weather and/or obstructions to visibility.

* = STATION THAT DOES NOT REPORT PRECIPITATION /E.G. RAIN...SNOW...ETC/
    THUNDER OR FOG.

PAZ002>004-007>009-013>016-020>023-029>032-240600-
WESTERN PENNSYLVANIA

CITY           SKY/WX    TMP DP  RH WIND       PRES   REMARKS
ERIE           CLEAR     52  35  52 S5        30.32S
MEADVILLE      CLEAR     52  38  58 CALM      30.33S
FRANKLIN*      CLEAR     50  34  53 CALM      30.35S
NEW CASTLE     FAIR      47  44  89 CALM      30.35R
BEAVER COUNTY  NOT AVBL
BUTLER*        CLEAR     46  39  76 CALM      30.35F
PITTSBURGH INT CLEAR     54  43  66 CALM      30.34S
PITTSBURGH     CLEAR     56  39  53 S7        30.34S
INDIANA*       CLEAR     46  41  81 E3        30.39F
LATROBE        CLEAR     46  45  93 CALM      30.37S
WASHINGTON CO* CLEAR     45  41  87 CALM      30.36F
$$

PAZ004>006-010>012-017>019-024>028-033>037-041-042-045-046-049>053-240600-
CENTRAL PENNSYLVANIA

CITY           SKY/WX    TMP DP  RH WIND       PRES   REMARKS
BRADFORD       CLEAR     38  33  82 CALM      30.35S
DUBOIS         CLEAR     50  32  50 S3        30.34F
CLEARFIELD     CLEAR     44  35  70 CALM      30.37S
JOHNSTOWN      CLEAR     53  33  46 S6        30.37S
ALTOONA        CLEAR     53  35  50 W3        30.38S
STATE COLLEGE  CLEAR     50  32  49 CALM      30.37S
WILLIAMSPORT   CLEAR     47  39  74 CALM      30.35R
SELINSGROVE    CLEAR     44  41  89 CALM      30.36S
FT INDIANTOWN  CLEAR     45  39  80 CALM      30.38R
CAPITAL CITY   CLEAR     52  40  63 W3        30.38R
HARRISBURG     PTCLDY    57  39  51 NE5       30.37S
YORK           CLEAR     49  41  74 CALM      30.38R
$$

PAZ038>040-043-044-047-048-054-055-060>062-067>071-240600-
EASTERN PENNSYLVANIA

CITY           SKY/WX    TMP DP  RH WIND       PRES   REMARKS
SCRANTON       CLEAR     47  34  60 SE3       30.34S
MOUNT POCONO   CLEAR     45  33  63 W6        30.35F
ALLENTOWN      CLEAR     46  35  65 CALM      30.37R
QUAKERTOWN*    CLEAR     41  37  87 CALM      30.38S
READING        CLEAR     55  37  50 SW3       30.37S
LANCASTER      CLEAR     55  39  54 CALM      30.38S
COATESVILLE    CLEAR     55  39  54 SW5       30.39F
POTTSTOWN      CLEAR     46  38  73 CALM      30.39S
BLUE BELL      CLEAR     46  37  71 CALM      30.37S
DOYLESTOWN     CLEAR     50  34  54 S5        30.37S
WILLOW GROVE   NOT AVBL
NORTH PHILA    CLEAR     55  40  56 CALM      30.39S
PHILADELPHIA   PTCLDY    57  48  72 SW3       30.39S
$$


USA.gov is the U.S. government's official web portal to all federal, state and local government web resources and services.